Weather History for Afton Municipal Airport, WY

Change the Weather History Date:

Saturday, March 15, 2014

  Actual Average Record
Temperature  
Mean Temperature 29 °F -  
Max Temperature 37 °F 41 °F 37 °F (2014)
Min Temperature 19 °F 15 °F 19 °F (2014)
Degree Days  
Heating Degree Days 36    
Moisture  
Dew Point 20 °F    
Average Humidity 66    
Maximum Humidity 93    
Minimum Humidity 38    
Precipitation  
Precipitation 0.00 in - - ()
Sea Level Pressure  
Sea Level Pressure 30.28 in    
Wind  
Wind Speed 4 mph (NNW)    
Max Wind Speed 12 mph    
Max Gust Speed -    
Visibility 10 miles    
Events      
Averages and records for this station are not official NWS values.
T = Trace of Precipitation, MM = Missing Value Source: NWS Daily Summary

Daily Weather History Graph

Daily Weather History Graph

Search for Another Location

Airport:

Trip Planner

Search our weather history database for the weather conditions in past years. The results will help you decide how hot, cold, wet, or windy it might be!

Date:

Astronomy

Mar. 15, 2014 Rise Set
Actual Time 7:35 AM MDT 7:30 PM MDT
Civil Twilight 7:07 AM MDT 7:58 PM MDT
Nautical Twilight 6:34 AM MDT 8:31 PM MDT
Astronomical Twilight 6:01 AM MDT 9:04 PM MDT
Moon 6:52 PM MDT (3/15) 6:50 AM MDT (3/15)
Length of Visible Light 12h 50m
Length of Day
11h 54m
Waxing Gibbous, 99% of the Moon is Illuminated
Mar 15
Waxing Gibbous
Mar 16
Full
Mar 23
Last Quarter
Mar 30
New
Apr 7
First Quarter

Hourly Weather History & Observations

Time (MDT) Temp. Windchill Dew Point Humidity Pressure Visibility Wind Dir Wind Speed Gust Speed Precip Events Conditions
12:15 AM 32.0 °F - 30.2 °F 93% 30.07 in 10.0 mi North - - N/A   Mostly Cloudy
12:35 AM 33.8 °F 28.6 °F 30.2 °F 87% 30.06 in 10.0 mi NNW 5.8 mph - N/A   Mostly Cloudy
12:55 AM 32.0 °F 26.4 °F 28.4 °F 87% 30.07 in 10.0 mi NNW 5.8 mph - N/A   Scattered Clouds
1:15 AM 32.0 °F - 28.4 °F 87% 30.08 in 10.0 mi Calm Calm - N/A   Scattered Clouds
1:35 AM 32.0 °F - 26.6 °F 80% 30.07 in 10.0 mi Calm Calm - N/A   Clear
1:55 AM 32.0 °F 28.7 °F 26.6 °F 80% 30.08 in 10.0 mi NNE 3.5 mph - N/A   Clear
2:15 AM 32.0 °F - 26.6 °F 80% 30.08 in 10.0 mi Calm Calm - N/A   Clear
2:35 AM 32.0 °F - 24.8 °F 75% 30.08 in 10.0 mi Calm Calm - N/A   Clear
2:55 AM 32.0 °F 27.5 °F 23.0 °F 69% 30.09 in 10.0 mi NW 4.6 mph - N/A   Clear
3:15 AM 30.2 °F 23.4 °F 23.0 °F 75% 30.09 in 10.0 mi NW 6.9 mph - N/A   Clear
3:35 AM 32.0 °F 24.2 °F 24.8 °F 75% 30.10 in 10.0 mi NNW 9.2 mph - N/A   Mostly Cloudy
3:55 AM 32.0 °F 24.2 °F 26.6 °F 80% 30.10 in 10.0 mi North 9.2 mph - N/A   Overcast
4:15 AM 32.0 °F 26.4 °F 24.8 °F 75% 30.10 in 10.0 mi North 5.8 mph - N/A   Overcast
4:35 AM 32.0 °F 23.0 °F 24.8 °F 75% 30.11 in 10.0 mi NW 11.5 mph - N/A   Overcast
4:55 AM 32.0 °F 24.2 °F 26.6 °F 80% 30.11 in 10.0 mi NW 9.2 mph - N/A   Overcast
5:15 AM 32.0 °F 24.8 °F 24.8 °F 75% 30.12 in 10.0 mi NNW 8.1 mph - N/A   Overcast
5:35 AM 30.2 °F 22.6 °F 24.8 °F 80% 30.12 in 10.0 mi NW 8.1 mph - N/A   Mostly Cloudy
5:55 AM 30.2 °F 24.3 °F 24.8 °F 80% 30.14 in 10.0 mi NNE 5.8 mph - N/A   Scattered Clouds
6:15 AM 28.4 °F 21.2 °F 23.0 °F 80% 30.15 in 10.0 mi North 6.9 mph - N/A   Scattered Clouds
6:35 AM 28.4 °F 21.2 °F 23.0 °F 80% 30.16 in 10.0 mi NNW 6.9 mph - N/A   Clear
6:55 AM 26.6 °F 17.5 °F 21.2 °F 80% 30.16 in 10.0 mi NNW 9.2 mph - N/A   Clear
7:15 AM 24.8 °F 16.9 °F 21.2 °F 86% 30.18 in 10.0 mi NNE 6.9 mph - N/A   Clear
7:35 AM 23.0 °F 17.0 °F 19.4 °F 86% 30.19 in 10.0 mi NW 4.6 mph - N/A   Scattered Clouds
7:55 AM 23.0 °F - 19.4 °F 86% 30.20 in 10.0 mi Calm Calm - N/A   Scattered Clouds
8:15 AM 23.0 °F - 19.4 °F 86% 30.22 in 10.0 mi Calm Calm - N/A   Clear
8:35 AM 23.0 °F - 19.4 °F 86% 30.23 in 10.0 mi Calm Calm - N/A   Clear
8:55 AM 23.0 °F - 19.4 °F 86% 30.24 in 10.0 mi Calm Calm - N/A   Scattered Clouds
9:15 AM 23.0 °F - 19.4 °F 86% 30.25 in 10.0 mi Calm Calm - N/A   Mostly Cloudy
9:35 AM 26.6 °F 22.6 °F 19.4 °F 74% 30.26 in 10.0 mi SE 3.5 mph - N/A   Mostly Cloudy
9:55 AM 26.6 °F - 19.4 °F 74% 30.28 in 10.0 mi Calm Calm - N/A   Scattered Clouds
10:15 AM 28.4 °F - 19.4 °F 69% 30.29 in 10.0 mi Calm Calm - N/A   Scattered Clouds
10:35 AM 28.4 °F - 19.4 °F 69% 30.30 in 10.0 mi Calm Calm - N/A   Mostly Cloudy
10:55 AM 30.2 °F - 19.4 °F 64% 30.31 in 10.0 mi Calm Calm - N/A   Scattered Clouds
11:15 AM 30.2 °F - 17.6 °F 60% 30.31 in 10.0 mi Calm Calm - N/A   Scattered Clouds
11:35 AM 32.0 °F 27.5 °F 19.4 °F 60% 30.32 in 10.0 mi West 4.6 mph - N/A   Scattered Clouds
11:55 AM 32.0 °F - 17.6 °F 55% 30.33 in 10.0 mi Calm Calm - N/A   Scattered Clouds
12:15 PM 32.0 °F - 17.6 °F 55% 30.34 in 10.0 mi Calm Calm - N/A   Scattered Clouds
12:35 PM 32.0 °F - 17.6 °F 55% 30.35 in 10.0 mi Calm Calm - N/A   Mostly Cloudy
12:55 PM 32.0 °F - 17.6 °F 55% 30.36 in 10.0 mi Calm Calm - N/A   Mostly Cloudy
1:15 PM 32.0 °F 28.7 °F 17.6 °F 55% 30.37 in 10.0 mi North 3.5 mph - N/A   Mostly Cloudy
1:35 PM 33.8 °F 30.8 °F 17.6 °F 52% 30.36 in 10.0 mi NNW 3.5 mph - N/A   Scattered Clouds
1:55 PM 33.8 °F 28.6 °F 17.6 °F 52% 30.36 in 10.0 mi NNW 5.8 mph - N/A   Scattered Clouds
2:15 PM 33.8 °F 27.0 °F 17.6 °F 52% 30.36 in 10.0 mi NNW 8.1 mph - N/A   Scattered Clouds
2:35 PM 35.6 °F 30.7 °F 17.6 °F 48% 30.36 in 10.0 mi North 5.8 mph - N/A   Scattered Clouds
2:55 PM 35.6 °F 29.9 °F 17.6 °F 48% 30.36 in 10.0 mi North 6.9 mph - N/A   Clear
3:15 PM 35.6 °F 30.7 °F 19.4 °F 52% 30.37 in 10.0 mi NNW 5.8 mph - N/A   Scattered Clouds
3:35 PM 35.6 °F 29.9 °F 17.6 °F 48% 30.38 in 10.0 mi NNW 6.9 mph - N/A   Scattered Clouds
3:55 PM 35.6 °F 28.6 °F 19.4 °F 52% 30.38 in 10.0 mi WNW 9.2 mph - N/A   Scattered Clouds
4:15 PM 35.6 °F 29.9 °F 19.4 °F 52% 30.37 in 10.0 mi NW 6.9 mph - N/A   Clear
4:35 PM 35.6 °F 31.7 °F 17.6 °F 48% 30.37 in 10.0 mi NNW 4.6 mph - N/A   Clear
4:55 PM 37.4 °F - 17.6 °F 45% 30.38 in 10.0 mi Calm Calm - N/A   Clear
5:15 PM 37.4 °F - 14.0 °F 38% 30.38 in 10.0 mi Calm Calm - N/A   Clear
5:35 PM 37.4 °F - 14.0 °F 38% 30.38 in 10.0 mi Calm Calm - N/A   Clear
5:55 PM 37.4 °F 33.8 °F 15.8 °F 41% 30.38 in 10.0 mi North 4.6 mph - N/A   Clear
6:15 PM 35.6 °F 31.7 °F 15.8 °F 44% 30.39 in 10.0 mi NW 4.6 mph - N/A   Clear
6:35 PM 35.6 °F - 19.4 °F 52% 30.39 in 10.0 mi Calm Calm - N/A   Clear
6:55 PM 35.6 °F - 17.6 °F 48% 30.39 in 10.0 mi Calm Calm - N/A   Clear
7:15 PM 33.8 °F - 14.0 °F 44% 30.39 in 10.0 mi Calm Calm - N/A   Clear
7:35 PM 33.8 °F 30.8 °F 17.6 °F 52% 30.40 in 10.0 mi SSE 3.5 mph - N/A   Clear
7:55 PM 32.0 °F 28.7 °F 15.8 °F 51% 30.40 in 10.0 mi ESE 3.5 mph - N/A   Clear
8:15 PM 32.0 °F 28.7 °F 15.8 °F 51% 30.40 in 10.0 mi East 3.5 mph - N/A   Clear
8:35 PM 32.0 °F 28.7 °F 15.8 °F 51% 30.40 in 10.0 mi East 3.5 mph - N/A   Clear
8:55 PM 30.2 °F 22.6 °F 15.8 °F 55% 30.40 in 10.0 mi East 8.1 mph - N/A   Clear
9:15 PM 30.2 °F - 17.6 °F 60% 30.40 in 10.0 mi North - - N/A   Clear
9:35 PM 28.4 °F - 17.6 °F 64% 30.40 in 10.0 mi Calm Calm - N/A   Clear
9:55 PM 28.4 °F 23.3 °F 17.6 °F 64% 30.40 in 10.0 mi South 4.6 mph - N/A   Clear
10:15 PM 24.8 °F - 17.6 °F 74% 30.41 in 10.0 mi Calm Calm - N/A   Clear
10:35 PM 23.0 °F 18.4 °F 17.6 °F 80% 30.41 in 10.0 mi West 3.5 mph - N/A   Clear
10:55 PM 21.2 °F - 15.8 °F 80% 30.41 in 10.0 mi Calm Calm - N/A   Clear
11:15 PM 21.2 °F - 14.0 °F 74% 30.42 in 10.0 mi Calm Calm - N/A   Clear
11:35 PM 21.2 °F - 14.0 °F 74% 30.42 in 10.0 mi Calm Calm - N/A   Clear
11:55 PM 19.4 °F - 14.0 °F 80% 30.44 in 10.0 mi Calm Calm - N/A   Clear